| time (UTC) | temp C | wind direction | speed KPH | gust KPH | rain 1hr cm | rain 24hr cm | rain mn cm | humidity % | barometer mb |
| 20260903034602 | 28 | 0 | 0.0 | 0.0 | 0.00 | 0.00 | 0.00 | 73 | 1010.8 |
| 20260903033058 | 29 | 150 | 0.0 | 1.6 | 0.00 | 0.00 | 0.00 | 72 | 1010.9 |
| 20260903031604 | 29 | 0 | 0.0 | 0.0 | 0.00 | 0.00 | 0.00 | 72 | 1010.8 |
| 20260903024559 | 29 | 0 | 0.0 | 0.0 | 0.00 | 0.00 | 0.00 | 72 | 1010.8 |
| 20260903023102 | 29 | 0 | 0.0 | 3.2 | 0.00 | 0.00 | 0.00 | 72 | 1010.9 |
| 20260903021607 | 30 | 0 | 0.0 | 3.2 | 0.00 | 0.00 | 0.00 | 71 | 1010.8 |
| 20260903020101 | 30 | 197 | 0.0 | 3.2 | 0.00 | 0.00 | 0.00 | 70 | 1010.7 |
| 20260903014608 | 30 | 0 | 0.0 | 4.8 | 0.00 | 0.00 | 0.00 | 70 | 1010.6 |
| 20260903013056 | 30 | 196 | 0.0 | 3.2 | 0.00 | 0.00 | 0.00 | 69 | 1010.5 |
| 20260903011559 | 31 | 158 | 1.6 | 4.8 | 0.00 | 0.00 | 0.00 | 68 | 1010.3 |
| 20260903010105 | 31 | 0 | 0.0 | 6.4 | 0.00 | 0.00 | 0.00 | 67 | 1010.3 |
| 20260903004600 | 31 | 210 | 0.0 | 4.8 | 0.00 | 0.00 | 0.00 | 66 | 1010.2 |
| 20260903003059 | 32 | 193 | 0.0 | 6.4 | 0.00 | 0.00 | 0.00 | 64 | 1010.2 |
| 20260903001619 | 32 | 0 | 0.0 | 1.6 | 0.00 | 0.00 | 0.00 | 62 | 1010.3 |
| 20260903000101 | 33 | 0 | 0.0 | 1.6 | 0.00 | 0.00 | 0.00 | 59 | 1010.4 |
| 20260902234623 | 33 | 0 | 0.0 | 4.8 | 0.00 | 0.00 | 0.00 | 58 | 1010.3 |
| 20260902233104 | 34 | 0 | 1.6 | 12.9 | 0.00 | 0.00 | 0.00 | 58 | 1010.3 |
| 20260902231613 | 33 | 0 | 0.0 | 6.4 | 0.00 | 0.00 | 0.00 | 59 | 1010.5 |
| 20260902230114 | 33 | 0 | 0.0 | 4.8 | 0.00 | 0.00 | 0.00 | 58 | 1010.6 |
| 20260902224605 | 34 | 0 | 0.0 | 3.2 | 0.00 | 0.00 | 0.00 | 57 | 1010.6 |
| 20260902223101 | 34 | 0 | 0.0 | 4.8 | 0.00 | 0.00 | 0.00 | 56 | 1010.4 |
| 20260902221601 | 34 | 0 | 0.0 | 8.0 | 0.00 | 0.00 | 0.00 | 55 | 1010.6 |
| 20260902214614 | 35 | 280 | 1.6 | 4.8 | 0.00 | 0.00 | 0.00 | 52 | 1010.5 |
| 20260902213100 | 35 | 286 | 0.0 | 6.4 | 0.00 | 0.00 | 0.00 | 54 | 1010.7 |
| 20260902211604 | 35 | 276 | 1.6 | 6.4 | 0.00 | 0.00 | 0.00 | 52 | 1010.7 |
| 20260902204601 | 35 | 290 | 0.0 | 6.4 | 0.00 | 0.00 | 0.00 | 52 | 1010.7 |
| 20260902203109 | 35 | 271 | 0.0 | 12.9 | 0.00 | 0.00 | 0.00 | 53 | 1010.8 |
| 20260902201603 | 35 | 183 | 1.6 | 9.7 | 0.00 | 0.00 | 0.00 | 52 | 1011.0 |
| 20260902200059 | 35 | 175 | 0.0 | 6.4 | 0.00 | 0.00 | 0.00 | 53 | 1011.0 |
| 20260902194558 | 34 | 0 | 0.0 | 9.7 | 0.00 | 0.00 | 0.00 | 53 | 1011.0 |
| 20260902193101 | 35 | 164 | 0.0 | 8.0 | 0.00 | 0.00 | 0.00 | 53 | 1011.2 |
| 20260902191605 | 35 | 0 | 0.0 | 6.4 | 0.00 | 0.00 | 0.00 | 53 | 1011.4 |
| 20260902190108 | 35 | 0 | 1.6 | 8.0 | 0.00 | 0.00 | 0.00 | 51 | 1011.4 |
| 20260902184559 | 35 | 259 | 0.0 | 9.7 | 0.00 | 0.00 | 0.00 | 51 | 1011.7 |
| 20260902183104 | 35 | 0 | 1.6 | 9.7 | 0.00 | 0.00 | 0.00 | 52 | 1011.7 |
| 20260902181605 | 35 | 124 | 1.6 | 8.0 | 0.00 | 0.00 | 0.00 | 52 | 1011.7 |
| 20260902180105 | 34 | 141 | 1.6 | 6.4 | 0.00 | 0.00 | 0.00 | 53 | 1011.9 |
| 20260902174608 | 35 | 0 | 0.0 | 6.4 | 0.00 | 0.00 | 0.00 | 55 | 1012.0 |
| 20260902173105 | 34 | 257 | 0.0 | 11.3 | 0.00 | 0.00 | 0.00 | 56 | 1012.0 |
| 20260902171606 | 33 | 273 | 0.0 | 6.4 | 0.00 | 0.00 | 0.00 | 59 | 1012.0 |
| 20260902164601 | 33 | 281 | 0.0 | 9.7 | 0.00 | 0.00 | 0.00 | 57 | 1012.4 |
| 20260902163106 | 32 | 0 | 0.0 | 6.4 | 0.00 | 0.00 | 0.00 | 57 | 1012.5 |
| 20260902161614 | 32 | 92 | 0.0 | 8.0 | 0.00 | 0.00 | 0.00 | 57 | 1012.6 |
| 20260902160059 | 31 | 0 | 0.0 | 4.8 | 0.00 | 0.00 | 0.00 | 58 | 1012.7 |
| 20260902154559 | 31 | 0 | 0.0 | 4.8 | 0.00 | 0.00 | 0.00 | 61 | 1012.9 |
| 20260902153117 | 30 | 275 | 0.0 | 4.8 | 0.00 | 0.00 | 0.00 | 60 | 1012.8 |
| 20260902151556 | 30 | 0 | 0.0 | 8.0 | 0.00 | 0.00 | 0.00 | 61 | 1012.6 |
| 20260902150059 | 30 | 0 | 0.0 | 4.8 | 0.00 | 0.00 | 0.00 | 61 | 1012.6 |
| 20260902144618 | 30 | 0 | 0.0 | 4.8 | 0.00 | 0.00 | 0.00 | 62 | 1012.6 |
| 20260902143059 | 29 | 0 | 0.0 | 3.2 | 0.00 | 0.00 | 0.00 | 64 | 1012.5 |
| 20260902141555 | 28 | 0 | 0.0 | 3.2 | 0.00 | 0.00 | 0.00 | 65 | 1012.5 |
| 20260902134602 | 27 | 0 | 0.0 | 4.8 | 0.00 | 0.00 | 0.00 | 70 | 1012.6 |
| 20260902133102 | 26 | 0 | 0.0 | 4.8 | 0.00 | 0.00 | 0.00 | 71 | 1012.7 |
| 20260902131602 | 26 | 0 | 0.0 | 3.2 | 0.00 | 0.00 | 0.00 | 72 | 1012.9 |
| 20260902124603 | 26 | 0 | 0.0 | 3.2 | 0.00 | 0.00 | 0.00 | 73 | 1012.9 |
| 20260902123104 | 26 | 0 | 0.0 | 0.0 | 0.00 | 0.00 | 0.00 | 73 | 1012.9 |
| 20260902121612 | 25 | 0 | 0.0 | 3.2 | 0.00 | 0.00 | 0.00 | 73 | 1012.7 |
| 20260902120111 | 25 | 0 | 0.0 | 0.0 | 0.00 | 0.00 | 0.00 | 73 | 1012.6 |
| 20260902114616 | 25 | 0 | 0.0 | 4.8 | 0.00 | 0.00 | 0.00 | 72 | 1012.4 |
| 20260902113103 | 25 | 0 | 0.0 | 4.8 | 0.00 | 0.00 | 0.00 | 72 | 1012.5 |
| 20260902111602 | 25 | 0 | 0.0 | 0.0 | 0.00 | 0.00 | 0.00 | 72 | 1012.5 |
| 20260902110059 | 26 | 0 | 0.0 | 1.6 | 0.00 | 0.00 | 0.00 | 72 | 1012.4 |
| 20260902104604 | 26 | 0 | 0.0 | 1.6 | 0.00 | 0.00 | 0.00 | 71 | 1012.3 |
| 20260902103119 | 26 | 0 | 0.0 | 0.0 | 0.00 | 0.00 | 0.00 | 72 | 1012.3 |
| 20260902101558 | 26 | 0 | 0.0 | 1.6 | 0.00 | 0.00 | 0.00 | 71 | 1012.3 |
| 20260902100059 | 26 | 0 | 0.0 | 4.8 | 0.00 | 0.00 | 0.00 | 72 | 1012.3 |
| 20260902094601 | 26 | 0 | 0.0 | 3.2 | 0.00 | 0.00 | 0.00 | 72 | 1012.3 |
| 20260902093110 | 26 | 0 | 0.0 | 3.2 | 0.00 | 0.00 | 0.00 | 72 | 1012.1 |
| 20260902091559 | 26 | 0 | 0.0 | 1.6 | 0.00 | 0.00 | 0.00 | 73 | 1012.1 |
| 20260902084600 | 26 | 0 | 0.0 | 0.0 | 0.00 | 0.00 | 0.00 | 72 | 1012.0 |
| 20260902083055 | 26 | 0 | 0.0 | 1.6 | 0.00 | 0.00 | 0.00 | 72 | 1012.0 |
| 20260902081555 | 26 | 0 | 0.0 | 1.6 | 0.00 | 0.00 | 0.00 | 72 | 1012.0 |
| 20260902080053 | 26 | 0 | 0.0 | 0.0 | 0.00 | 0.00 | 0.00 | 72 | 1011.9 |
| 20260902074613 | 26 | 0 | 0.0 | 0.0 | 0.00 | 0.00 | 0.00 | 72 | 1012.0 |
| 20260902073056 | 27 | 0 | 0.0 | 1.6 | 0.00 | 0.00 | 0.00 | 72 | 1011.9 |
| 20260902071559 | 27 | 169 | 0.0 | 6.4 | 0.00 | 0.00 | 0.00 | 71 | 1011.9 |
| 20260902070103 | 27 | 0 | 0.0 | 3.2 | 0.00 | 0.00 | 0.00 | 72 | 1011.9 |
| 20260902064602 | 27 | 0 | 0.0 | 1.6 | 0.00 | 0.00 | 0.00 | 71 | 1012.0 |
| 20260902063057 | 27 | 0 | 0.0 | 1.6 | 0.00 | 0.00 | 0.00 | 71 | 1012.0 |
| 20260902061559 | 27 | 0 | 0.0 | 4.8 | 0.00 | 0.00 | 0.00 | 72 | 1012.0 |
| 20260902060104 | 27 | 185 | 0.0 | 3.2 | 0.00 | 0.00 | 0.00 | 72 | 1011.9 |
| 20260902054559 | 27 | 0 | 0.0 | 4.8 | 0.00 | 0.00 | 0.00 | 72 | 1011.9 |
| 20260902053106 | 27 | 0 | 0.0 | 6.4 | 0.00 | 0.00 | 0.00 | 72 | 1012.1 |
| 20260902051559 | 27 | 0 | 0.0 | 3.2 | 0.00 | 0.00 | 0.00 | 72 | 1012.1 |
| 20260902050100 | 27 | 0 | 0.0 | 1.6 | 0.00 | 0.00 | 0.00 | 71 | 1012.2 |
| 20260902044603 | 27 | 181 | 0.0 | 3.2 | 0.00 | 0.00 | 0.00 | 71 | 1012.3 |
| 20260902043109 | 28 | 0 | 0.0 | 3.2 | 0.00 | 0.00 | 0.00 | 70 | 1012.2 |
| 20260902041600 | 28 | 167 | 0.0 | 4.8 | 0.00 | 0.00 | 0.00 | 69 | 1012.2 |
| 20260902040105 | 28 | 0 | 0.0 | 4.8 | 0.00 | 0.00 | 0.00 | 67 | 1012.3 |